Flag for Gibraltar Weather past 2 weeks in Gibraltar, Gibraltar

Now
70 °F

Passing clouds.


Feels Like: 70 °F
Forecast: 63 / 72 °F
Wind: 8 mph from Northwest

Location: Gibraltar Airport

Current Time: Sep 24, 2014 at 1:26:10 AM

Latest Report: Sep 24, 2014 at 12:50 AM


Visibility: N/A

Pressure: 30.01 "Hg

Humidity: 83%

Dew point: 64 °F

Location of GibraltarLocation

Historic Weather in Gibraltar — Graph

°F

Gibraltar temperature yesterday

Maximum temperature yesterday: 75 °F (at 12:50 PM)
Minimum temperature yesterday: 64 °F (at 7:50 AM)
Average temperature yesterday: 71 °F

Past Weeks' High & Low Weather Summary

 TemperatureHumidityPressure
High86 °F (Sep 13, 3:50 PM)100% (Sep 18, 7:50 AM)30.07 "Hg (Sep 18, 7:50 AM)
Low64 °F (Sep 23, 7:50 AM)25% (Sep 15, 5:50 PM)29.80 "Hg (Sep 16, 4:50 AM)
Average74 °F70%29.96 "Hg
* Reported Sep 8 11:50 PM — Sep 23 11:50 PM, Gibraltar, Weather by CustomWeather, © 2014

Note: Actual official high and low records may vary slightly from our data, if they occured in-between our weather recording intervals... More about our weather records

Advertising

Gibraltar weather history for previous 24 hours

 ConditionsComfort  
Time TempWeatherWind HumidityBarometerVisibility
11:50 PM
Sep 23
70 °FPassing clouds.6 mph83%30.01 "HgN/A
10:50 PM72 °FPassing clouds.3 mph78%29.98 "HgN/A
9:50 PM72 °FPassing clouds.3 mph73%29.98 "HgN/A
8:50 PM72 °FPassing clouds.7 mph69%29.98 "HgN/A
7:50 PM72 °FScattered clouds.5 mph73%29.95 "HgN/A
6:50 PM73 °FSprinkles. Scattered clouds.7 mph65%29.95 "HgN/A
5:50 PM73 °FScattered clouds.8 mph65%29.95 "HgN/A
4:50 PM75 °FScattered clouds.7 mph61%29.95 "HgN/A
3:50 PM72 °FPartly sunny.16 mph73%29.98 "HgN/A
2:50 PM75 °FScattered clouds.9 mph57%29.98 "HgN/A
1:50 PM75 °FScattered clouds.7 mph65%30.01 "HgN/A
12:50 PM75 °FScattered clouds.9 mph61%30.01 "HgN/A
11:50 AM73 °FScattered clouds.7 mph69%30.01 "HgN/A
10:50 AM72 °FScattered clouds.6 mph73%30.01 "HgN/A
9:50 AM68 °FPartly sunny.5 mph83%30.01 "HgN/A
8:50 AM64 °FPassing clouds.5 mph94%30.01 "HgN/A
7:50 AM64 °FPassing clouds.5 mph94%29.98 "HgN/A
6:50 AM66 °FPassing clouds.3 mph88%29.98 "HgN/A
5:50 AM68 °FPassing clouds.6 mph78%29.98 "HgN/A
4:50 AM68 °FPassing clouds.5 mph83%29.98 "HgN/A
3:50 AM68 °FClear.3 mph83%30.01 "HgN/A
2:50 AM68 °FClear.6 mph83%30.01 "HgN/A
1:50 AM68 °FPassing clouds.7 mph83%30.01 "HgN/A
Weather by CustomWeather, © 2014

See weather overviewHow to use our weather pages